Regional Weather Roundup
Issued by NWS Kansas City/Pleasant Hill, MO

Home | Current Version | Previous Version | Text Only | Print | Product List | Glossary On
Versions: 1 2 3 4 5 6 7 8 9 10 11 12 13 14 15 16 17 18 19 20 21 22 23 24 25 26 27 28 29 30 31 32 33 34 35 36 37 38 39 40 41 42 43 44 45 46 47 48 49 50
000
ASUS43 KEAX 201110
RWREAX

WEATHER ROUNDUP FOR EASTERN KANSAS AND NORTHWEST MISSOURI
NATIONAL WEATHER SERVICE KANSAS CITY/PLEASANT HILL MO
500 AM CST MON FEB 20 2017

KSZ040-057-103>105-MOZ028-029-037-043-201200-
...KANSAS CITY METROPOLITAN AREA...

CITY           SKY/WX    TMP DP  RH WIND       PRES   REMARKS
K.C. INTL      CLOUDY    60  57  89 S12       29.85R
K.C. DOWNTOWN  CLOUDY    64  55  72 SW8       29.85R
LEES SUMMIT    MOCLDY    62  55  77 SE15G22   29.84F
OLATHE - IXD   CLOUDY    62  54  74 S6        29.85F
OLATHE - OJC   CLOUDY    62  55  77 S9        29.85R
LAWRENCE       CLOUDY    62  56  80 SE8       29.82F

$$

MOZ001>008-011>017-020>025-030>033-038>040-044>046-053-054-201200-
...NORTHERN AND CENTRAL MISSOURI...

CITY           SKY/WX    TMP DP  RH WIND       PRES   REMARKS
ST. JOSEPH     MOCLDY    62  56  80 S10       29.83F
WARRENSBURG    CLOUDY    61  54  77 SE14      29.87S
WHITEMAN AFB   PTCLDY    61  61 100 S13       29.87S
CLINTON        MOCLDY    61  55  82 SE10      29.87F
SEDALIA        PTCLDY    63  55  75 SE14      29.90F
WARSAW         NOT AVBL
CHILLICOTHE      N/A     60  55  83 SE7       29.89F
KIRKSVILLE     CLOUDY    55  53  93 SE8       29.94R

$$

MOZ041-047>049-056>058-063>065-088>090-097-201200-
...EASTERN AND SOUTHERN MISSOURI...

CITY           SKY/WX    TMP DP  RH WIND       PRES   REMARKS
ST. LOUIS INTL CLOUDY    53  50  89 SE8       30.04S
SPIRIT OF STL  FOG       49  49 100 E5        30.02F VSB 1/2
COLUMBIA       MOCLDY    59  56  89 SE14      29.95S
JEFFERSON CITY MOCLDY    59  54  83 E10       29.95S
ROLLA          CLOUDY    58  53  84 S8        29.98S
OSAGE BEACH    PTCLDY    60  55  83 SE9       29.96S
SPRINGFIELD    PTCLDY    61  55  81 SE20      29.90F
BRANSON        PTCLDY    55  55 100 SE13      29.94F
JOPLIN         CLOUDY    63  53  70 SE10      29.84S
WEST PLAINS    PTCLDY    56  52  86 SE7       30.02F

$$

IAZ060-094-KSZ022-034>040-054-083-096-NEZ052-066-093-201200-
...KANSAS...SOUTHEAST NEBRASKA AND IOWA...

CITY           SKY/WX    TMP DP  RH WIND       PRES   REMARKS
TOPEKA         CLOUDY    60  57  89 SE12      29.79S
MANHATTAN      CLOUDY    59  56  89 S13       29.76R
EMPORIA        LGT RAIN  58  57  97 SE8       29.79S
CHANUTE        LGT RAIN  61  55  81 S6        29.83S
WICHITA        CLOUDY    58  57  97 S13       29.76F
OMAHA          LGT RAIN  58  54  86 S16       29.76R FOG
LINCOLN        LGT RAIN  59  57  93 S3        29.75R
FALLS CITY     LGT RAIN  58  58 100 SE9       29.75F
LAMONI         CLOUDY    58  54  86 SE13      29.85F
DES MOINES     CLOUDY    59  51  75 SE13      29.86S

$$




USA.gov is the U.S. government's official web portal to all federal, state and local government web resources and services.